Location: Poughquag
(41.6090°N, 73.6820°W)
Time: 12:54:59
(UTC-04:00)

Vanguard 1 - Pass Details

Date: 05 December 2023
Orbit: 649 x 3825 km, 34.2° (Epoch: 19 September)

Event Time Altitude Azimuth Distance (km) Brightness Sun altitude
Rises 16:02:21 0° 212° (SSW) 4,980 15.1 2.7°
Reaches altitude 10° 16:05:25 10° 204° (SSW) 4,355 14.5 2.2°
Maximum altitude 16:16:58 39° 141° (SE) 3,721 13.0 0.4°
Drops below altitude 10° 16:35:02 10° 82° (E) 6,739 13.7 -2.5°
Enters shadow 16:40:29 - 77° (ENE) 7,791 14.0 -3.4°
Sets 16:41:16 0° 77° (ENE) 7,938 - -3.6°
